Simultaneous Nadir Overpasses (SNOs) Predictions

Prediction of SNOs between LANDSAT-8 and NOAA-19 Satellite Orbit:

Table of predicted SNOs for the next 14.0 days since TLE Epoch: 9/30/2023
Index Date (LANDSAT-8) Time (LANDSAT-8) Lat,Lon (LANDSAT-8) SZA (LANDSAT-8 ) Date (NOAA-19) Time (NOAA-19) Lat,Lon (NOAA-19) SZA (NOAA-19 ) Distance(km) Time Diff (sec)
1 10/01/2023 23:04:54 -80.91, 50.81 93.67 10/01/2023 23:04:27 -80.92, 50.63 93.70 3.24 27
2 10/01/2023 23:54:20 80.92,-141.48 86.36 10/01/2023 23:55:22 80.93,-141.55 86.39 1.50 62
3 10/04/2023 05:28:04 -80.92, -44.86 92.76 10/04/2023 05:27:46 -80.92, -44.71 92.75 2.54 18
4 10/04/2023 06:17:30 80.93, 122.84 87.27 10/04/2023 06:18:42 80.93, 122.92 87.31 1.33 72
5 10/06/2023 11:51:14 -80.92,-140.68 91.88 10/06/2023 11:51:06 -80.92,-140.51 91.86 3.01 8
6 10/08/2023 18:14:23 -80.93, 123.69 90.98 10/08/2023 18:14:26 -80.92, 123.61 90.99 1.80 3
7 10/11/2023 00:37:33 -80.91, 27.55 90.16 10/11/2023 00:37:46 -80.92, 27.64 90.14 2.24 13
8 10/13/2023 06:11:14 80.92, 124.28 90.72 10/13/2023 06:10:07 80.91, 124.10 90.67 3.20 67



Historial Predications of SNOs between LANDSAT-8 and NOAA-19
